| time (UTC) | temp C | wind direction | speed KPH | gust KPH | rain 1hr cm | rain 24hr cm | rain mn cm | humidity % | barometer mb |
| 20260506094505 | 21 | 233 | 14.5 | 22.5 | 0.00 | 0.00 | 0.00 | 53 | 1004.2 |
| 20260506094224 | 21 | 254 | 16.1 | 19.3 | 0.00 | 0.00 | 0.00 | 52 | 1005.3 |
| 20260506094004 | 21 | 237 | 16.1 | 22.5 | 0.00 | 0.00 | 0.00 | 54 | 1003.8 |
| 20260506093505 | 20 | 246 | 16.1 | 27.4 | 0.00 | 0.00 | 0.00 | 55 | 1003.9 |
| 20260506093224 | 20 | 287 | 17.7 | 25.7 | 0.00 | 0.00 | 0.00 | 55 | 1005.4 |
| 20260506092724 | 20 | 303 | 19.3 | 25.7 | 0.00 | 0.00 | 0.00 | 54 | 1005.2 |
| 20260506092224 | 21 | 304 | 17.7 | 25.7 | 0.00 | 0.00 | 0.00 | 54 | 1005.2 |
| 20260506092004 | 21 | 254 | 16.1 | 25.7 | 0.00 | 0.00 | 0.00 | 55 | 1003.9 |
| 20260506091724 | 21 | 295 | 14.5 | 25.7 | 0.00 | 0.00 | 0.00 | 54 | 1005.1 |
| 20260506091505 | 21 | 244 | 14.5 | 19.3 | 0.00 | 0.00 | 0.00 | 54 | 1003.7 |
| 20260506091224 | 21 | 256 | 14.5 | 17.7 | 0.00 | 0.00 | 0.00 | 54 | 1005.3 |
| 20260506091004 | 21 | 251 | 14.5 | 19.3 | 0.00 | 0.00 | 0.00 | 55 | 1003.8 |
| 20260506090724 | 20 | 247 | 14.5 | 17.7 | 0.00 | 0.00 | 0.00 | 55 | 1005.4 |
| 20260506090004 | 21 | 233 | 17.7 | 25.7 | 0.00 | 0.00 | 0.00 | 56 | 1003.7 |
| 20260506085724 | 20 | 232 | 17.7 | 24.1 | 0.00 | 0.00 | 0.00 | 56 | 1005.1 |
| 20260506085225 | 20 | 277 | 17.7 | 24.1 | 0.00 | 0.00 | 0.00 | 55 | 1005.2 |
| 20260506085005 | 20 | 248 | 17.7 | 25.7 | 0.00 | 0.00 | 0.00 | 58 | 1003.8 |
| 20260506084724 | 20 | 311 | 16.1 | 22.5 | 0.00 | 0.00 | 0.00 | 58 | 1005.3 |
| 20260506084504 | 20 | 253 | 14.5 | 19.3 | 0.00 | 0.00 | 0.00 | 58 | 1003.7 |
| 20260506084225 | 20 | 283 | 14.5 | 20.9 | 0.00 | 0.00 | 0.00 | 57 | 1005.2 |
| 20260506084004 | 20 | 237 | 16.1 | 20.9 | 0.00 | 0.00 | 0.00 | 59 | 1003.7 |
| 20260506083724 | 19 | 265 | 16.1 | 20.9 | 0.00 | 0.00 | 0.00 | 59 | 1005.6 |
| 20260506083505 | 19 | 249 | 17.7 | 20.9 | 0.00 | 0.00 | 0.00 | 59 | 1003.9 |
| 20260506083224 | 19 | 251 | 16.1 | 20.9 | 0.00 | 0.00 | 0.00 | 58 | 1005.4 |
| 20260506082724 | 19 | 250 | 14.5 | 19.3 | 0.00 | 0.00 | 0.00 | 58 | 1005.4 |
| 20260506082504 | 19 | 249 | 14.5 | 22.5 | 0.00 | 0.00 | 0.00 | 58 | 1003.7 |
| 20260506082004 | 19 | 208 | 17.7 | 25.7 | 0.00 | 0.00 | 0.00 | 59 | 1003.8 |
| 20260506081724 | 19 | 239 | 19.3 | 24.1 | 0.00 | 0.00 | 0.00 | 57 | 1005.6 |
| 20260506081505 | 19 | 229 | 22.5 | 25.7 | 0.00 | 0.00 | 0.00 | 59 | 1003.7 |
| 20260506081005 | 19 | 223 | 22.5 | 24.1 | 0.00 | 0.00 | 0.00 | 58 | 1003.6 |
| 20260506080725 | 19 | 211 | 17.7 | 24.1 | 0.00 | 0.00 | 0.00 | 59 | 1005.2 |
| 20260506080505 | 19 | 210 | 20.9 | 24.1 | 0.00 | 0.00 | 0.00 | 58 | 1003.6 |
| 20260506080230 | 19 | 212 | 19.3 | 24.1 | 0.00 | 0.00 | 0.00 | 58 | 1005.3 |
| 20260506073505 | 18 | 226 | 16.1 | 25.7 | 0.00 | 0.00 | 0.00 | 60 | 1003.6 |
| 20260506073225 | 18 | 238 | 17.7 | 25.7 | 0.00 | 0.00 | 0.00 | 61 | 1005.0 |
| 20260506073004 | 18 | 239 | 17.7 | 25.7 | 0.00 | 0.00 | 0.00 | 62 | 1003.6 |
| 20260506072224 | 18 | 253 | 17.7 | 22.5 | 0.00 | 0.00 | 0.00 | 60 | 1005.0 |
| 20260506072005 | 18 | 221 | 17.7 | 20.9 | 0.00 | 0.00 | 0.00 | 62 | 1003.6 |
| 20260506071724 | 18 | 248 | 17.7 | 24.1 | 0.00 | 0.00 | 0.00 | 60 | 1005.2 |
| 20260506071504 | 18 | 222 | 16.1 | 24.1 | 0.00 | 0.00 | 0.00 | 61 | 1003.4 |
| 20260506070504 | 18 | 226 | 16.1 | 24.1 | 0.00 | 0.00 | 0.00 | 62 | 1003.2 |
| 20260506062504 | 16 | 217 | 12.9 | 17.7 | 0.00 | 0.00 | 0.00 | 66 | 1003.0 |
| 20260506062224 | 16 | 208 | 12.9 | 22.5 | 0.00 | 0.00 | 0.00 | 65 | 1004.7 |
| 20260506061725 | 16 | 223 | 14.5 | 22.5 | 0.00 | 0.00 | 0.00 | 64 | 1004.9 |
| 20260506061504 | 16 | 205 | 16.1 | 22.5 | 0.00 | 0.00 | 0.00 | 65 | 1003.2 |
| 20260506061225 | 16 | 231 | 14.5 | 22.5 | 0.00 | 0.00 | 0.00 | 64 | 1004.6 |
| 20260506061004 | 16 | 203 | 17.7 | 22.5 | 0.00 | 0.00 | 0.00 | 64 | 1003.2 |
| 20260506060724 | 16 | 224 | 12.9 | 20.9 | 0.00 | 0.00 | 0.00 | 64 | 1004.7 |
| 20260506060504 | 16 | 201 | 16.1 | 17.7 | 0.00 | 0.00 | 0.00 | 65 | 1003.1 |
| 20260506060231 | 16 | 220 | 12.9 | 20.9 | 0.00 | 0.00 | 0.00 | 64 | 1004.7 |
| 20260506051225 | 16 | 210 | 11.3 | 14.5 | 0.00 | 0.00 | 0.00 | 65 | 1004.7 |
| 20260506051004 | 15 | 214 | 9.7 | 16.1 | 0.00 | 0.00 | 0.00 | 67 | 1002.8 |
| 20260506050724 | 15 | 201 | 8.0 | 14.5 | 0.00 | 0.00 | 0.00 | 65 | 1005.0 |
| 20260506050504 | 15 | 215 | 9.7 | 16.1 | 0.00 | 0.00 | 0.00 | 69 | 1003.0 |
| 20260506050231 | 15 | 209 | 8.0 | 17.7 | 0.00 | 0.00 | 0.00 | 68 | 1004.7 |
| 20260506045004 | 15 | 215 | 8.0 | 12.9 | 0.00 | 0.00 | 0.00 | 74 | 1003.2 |
| 20260506044725 | 14 | 225 | 8.0 | 12.9 | 0.00 | 0.00 | 0.00 | 75 | 1004.8 |
| 20260506044004 | 13 | 204 | 6.4 | 8.0 | 0.00 | 0.00 | 0.00 | 81 | 1003.3 |
| 20260506043724 | 12 | 188 | 6.4 | 8.0 | 0.00 | 0.00 | 0.00 | 94 | 1004.8 |
| 20260506043505 | 13 | 193 | 6.4 | 8.0 | 0.00 | 0.00 | 0.00 | 85 | 1003.1 |
| 20260506043225 | 12 | 179 | 4.8 | 8.0 | 0.00 | 0.00 | 0.00 | 96 | 1005.0 |
| 20260506043004 | 12 | 186 | 4.8 | 8.0 | 0.00 | 0.00 | 0.00 | 86 | 1003.3 |
| 20260506042724 | 11 | 186 | 4.8 | 6.4 | 0.00 | 0.00 | 0.00 | 97 | 1005.0 |
| 20260506042504 | 12 | 183 | 3.2 | 4.8 | 0.00 | 0.00 | 0.00 | 88 | 1003.2 |
| 20260506042005 | 12 | 171 | 3.2 | 4.8 | 0.00 | 0.00 | 0.00 | 90 | 1003.2 |
| 20260506041725 | 10 | 168 | 3.2 | 4.8 | 0.00 | 0.00 | 0.00 | 99 | 1005.0 |
| 20260506041504 | 11 | 153 | 3.2 | 4.8 | 0.00 | 0.00 | 0.00 | 92 | 1003.3 |
| 20260506041224 | 10 | 173 | 3.2 | 6.4 | 0.00 | 0.00 | 0.00 | 99 | 1004.8 |
| 20260506041005 | 11 | 132 | 3.2 | 3.2 | 0.00 | 0.00 | 0.00 | 92 | 1003.3 |
| 20260506040724 | 10 | 158 | 3.2 | 6.4 | 0.00 | 0.00 | 0.00 | 99 | 1004.8 |
| 20260506040504 | 10 | 150 | 3.2 | 3.2 | 0.00 | 0.00 | 0.00 | 94 | 1003.1 |
| 20260506040230 | 10 | 150 | 3.2 | 3.2 | 0.00 | 0.00 | 0.00 | 99 | 1005.1 |
| 20260506040004 | 10 | 165 | 3.2 | 3.2 | 0.00 | 0.00 | 0.00 | 94 | 1003.2 |
| 20260506035725 | 10 | 155 | 3.2 | 3.2 | 0.00 | 0.00 | 0.00 | 99 | 1005.1 |
| 20260506035505 | 10 | 159 | 1.6 | 3.2 | 0.00 | 0.00 | 0.00 | 94 | 1003.1 |
| 20260506035224 | 10 | 144 | 1.6 | 3.2 | 0.00 | 0.00 | 0.00 | 99 | 1004.9 |
| 20260506035004 | 10 | 142 | 1.6 | 3.2 | 0.00 | 0.00 | 0.00 | 94 | 1003.2 |
| 20260506034724 | 10 | 129 | 0.0 | 3.2 | 0.00 | 0.00 | 0.00 | 99 | 1005.2 |
| 20260506034504 | 10 | 124 | 1.6 | 3.2 | 0.00 | 0.00 | 0.00 | 94 | 1003.3 |
| 20260506034225 | 10 | 123 | 1.6 | 3.2 | 0.00 | 0.00 | 0.00 | 99 | 1004.9 |
| 20260506034004 | 10 | 119 | 3.2 | 3.2 | 0.00 | 0.00 | 0.00 | 94 | 1003.3 |
| 20260506033724 | 10 | 113 | 1.6 | 3.2 | 0.00 | 0.00 | 0.00 | 99 | 1005.1 |
| 20260506033504 | 10 | 115 | 3.2 | 3.2 | 0.00 | 0.00 | 0.00 | 94 | 1003.2 |
| 20260506033224 | 10 | 108 | 3.2 | 3.2 | 0.00 | 0.00 | 0.00 | 99 | 1005.0 |
| 20260506033005 | 10 | 117 | 3.2 | 4.8 | 0.00 | 0.00 | 0.00 | 94 | 1003.2 |
| 20260506032725 | 10 | 116 | 3.2 | 4.8 | 0.00 | 0.00 | 0.00 | 99 | 1005.0 |
| 20260506032505 | 10 | 111 | 3.2 | 4.8 | 0.00 | 0.00 | 0.00 | 94 | 1003.3 |
| 20260506032004 | 10 | 109 | 3.2 | 4.8 | 0.00 | 0.00 | 0.00 | 94 | 1003.3 |
| 20260506031724 | 10 | 105 | 3.2 | 3.2 | 0.00 | 0.00 | 0.00 | 98 | 1005.1 |
| 20260506031504 | 10 | 116 | 3.2 | 3.2 | 0.00 | 0.00 | 0.00 | 94 | 1003.3 |
| 20260506030504 | 10 | 117 | 3.2 | 3.2 | 0.00 | 0.00 | 0.00 | 94 | 1003.5 |
| 20260506030004 | 10 | 110 | 3.2 | 4.8 | 0.00 | 0.00 | 0.00 | 94 | 1003.4 |
| 20260506025505 | 10 | 114 | 3.2 | 4.8 | 0.00 | 0.00 | 0.00 | 94 | 1003.3 |
| 20260506025225 | 10 | 108 | 3.2 | 3.2 | 0.00 | 0.00 | 0.00 | 98 | 1005.1 |
| 20260506025004 | 10 | 113 | 3.2 | 3.2 | 0.00 | 0.00 | 0.00 | 94 | 1003.5 |
| 20260506024504 | 10 | 89 | 3.2 | 3.2 | 0.00 | 0.00 | 0.00 | 93 | 1003.4 |
| 20260506024005 | 10 | 101 | 3.2 | 3.2 | 0.00 | 0.00 | 0.00 | 93 | 1003.3 |
| 20260506023724 | 10 | 100 | 1.6 | 3.2 | 0.00 | 0.00 | 0.00 | 97 | 1005.1 |
| 20260506023504 | 10 | 110 | 3.2 | 3.2 | 0.00 | 0.00 | 0.00 | 93 | 1003.4 |
| 20260506023225 | 10 | 115 | 1.6 | 3.2 | 0.00 | 0.00 | 0.00 | 97 | 1005.2 |
| 20260506023004 | 10 | 113 | 3.2 | 3.2 | 0.00 | 0.00 | 0.00 | 93 | 1003.3 |
| 20260506022724 | 10 | 124 | 1.6 | 3.2 | 0.00 | 0.00 | 0.00 | 96 | 1005.2 |
| 20260506022504 | 10 | 112 | 1.6 | 3.2 | 0.00 | 0.00 | 0.00 | 93 | 1003.4 |
| 20260506022224 | 10 | 120 | 1.6 | 3.2 | 0.00 | 0.00 | 0.00 | 97 | 1005.3 |
| 20260506022004 | 10 | 104 | 1.6 | 3.2 | 0.00 | 0.00 | 0.00 | 93 | 1003.4 |
| 20260506021725 | 10 | 0 | 0.0 | 0.0 | 0.00 | 0.00 | 0.00 | 97 | 1005.3 |
| 20260506021224 | 10 | 0 | 0.0 | 0.0 | 0.00 | 0.00 | 0.00 | 96 | 1005.4 |
| 20260506021005 | 10 | 0 | 0.0 | 0.0 | 0.00 | 0.00 | 0.00 | 93 | 1003.5 |
| 20260506020725 | 10 | 135 | 0.0 | 1.6 | 0.00 | 0.00 | 0.00 | 96 | 1005.3 |
| 20260506020504 | 11 | 135 | 0.0 | 1.6 | 0.00 | 0.00 | 0.00 | 93 | 1003.5 |
| 20260506020230 | 10 | 135 | 0.0 | 3.2 | 0.00 | 0.00 | 0.00 | 96 | 1005.3 |
| 20260506020004 | 11 | 130 | 0.0 | 3.2 | 0.00 | 0.00 | 0.00 | 93 | 1003.5 |
| 20260506015724 | 11 | 125 | 1.6 | 3.2 | 0.00 | 0.00 | 0.00 | 96 | 1005.4 |
| 20260506015504 | 11 | 127 | 1.6 | 3.2 | 0.00 | 0.00 | 0.00 | 93 | 1003.5 |
| 20260506015225 | 11 | 129 | 3.2 | 3.2 | 0.00 | 0.00 | 0.00 | 96 | 1005.3 |
| 20260506015004 | 11 | 134 | 3.2 | 4.8 | 0.00 | 0.00 | 0.00 | 93 | 1003.6 |
| 20260506014725 | 11 | 133 | 3.2 | 4.8 | 0.00 | 0.00 | 0.00 | 96 | 1005.4 |
| 20260506014224 | 10 | 135 | 1.6 | 4.8 | 0.00 | 0.00 | 0.00 | 96 | 1005.2 |
| 20260506013724 | 11 | 135 | 1.6 | 3.2 | 0.00 | 0.00 | 0.00 | 96 | 1005.4 |
| 20260506013504 | 11 | 115 | 0.0 | 3.2 | 0.00 | 0.00 | 0.00 | 92 | 1003.7 |
| 20260506013225 | 11 | 135 | 1.6 | 3.2 | 0.00 | 0.00 | 0.00 | 95 | 1005.3 |
| 20260506013004 | 11 | 128 | 1.6 | 3.2 | 0.00 | 0.00 | 0.00 | 92 | 1003.7 |
| 20260506012725 | 11 | 135 | 3.2 | 3.2 | 0.00 | 0.00 | 0.00 | 95 | 1005.4 |
| 20260506012505 | 11 | 121 | 3.2 | 4.8 | 0.00 | 0.00 | 0.00 | 92 | 1003.7 |
| 20260506012225 | 11 | 129 | 3.2 | 3.2 | 0.00 | 0.00 | 0.00 | 94 | 1005.2 |
| 20260506012004 | 11 | 115 | 3.2 | 4.8 | 0.00 | 0.00 | 0.00 | 92 | 1003.5 |
| 20260506011505 | 11 | 121 | 1.6 | 4.8 | 0.00 | 0.00 | 0.00 | 92 | 1003.5 |
| 20260506011224 | 11 | 125 | 1.6 | 4.8 | 0.00 | 0.00 | 0.00 | 94 | 1005.4 |
| 20260506010725 | 11 | 118 | 0.0 | 3.2 | 0.00 | 0.00 | 0.00 | 94 | 1005.4 |
| 20260506010230 | 11 | 123 | 0.0 | 1.6 | 0.00 | 0.00 | 0.00 | 94 | 1005.4 |
| 20260506005724 | 11 | 127 | 0.0 | 3.2 | 0.00 | 0.00 | 0.00 | 94 | 1005.5 |
| 20260506005505 | 12 | 118 | 1.6 | 3.2 | 0.00 | 0.00 | 0.00 | 91 | 1003.8 |
| 20260506005224 | 11 | 119 | 1.6 | 3.2 | 0.00 | 0.00 | 0.00 | 94 | 1005.5 |
| 20260506005004 | 12 | 115 | 3.2 | 4.8 | 0.00 | 0.00 | 0.00 | 91 | 1003.9 |
| 20260506004505 | 12 | 118 | 4.8 | 6.4 | 0.00 | 0.00 | 0.00 | 90 | 1003.9 |
| 20260506004224 | 11 | 126 | 4.8 | 6.4 | 0.00 | 0.00 | 0.00 | 94 | 1005.4 |
| 20260506004004 | 12 | 118 | 4.8 | 6.4 | 0.00 | 0.00 | 0.00 | 90 | 1003.9 |
| 20260506003504 | 12 | 105 | 6.4 | 6.4 | 0.00 | 0.00 | 0.00 | 90 | 1003.9 |
| 20260506003225 | 11 | 116 | 4.8 | 4.8 | 0.00 | 0.00 | 0.00 | 94 | 1005.6 |
| 20260506003004 | 12 | 94 | 3.2 | 6.4 | 0.00 | 0.00 | 0.00 | 90 | 1003.8 |
| 20260506002724 | 11 | 115 | 3.2 | 4.8 | 0.00 | 0.00 | 0.00 | 94 | 1005.5 |
| 20260506002504 | 12 | 99 | 1.6 | 6.4 | 0.00 | 0.00 | 0.00 | 90 | 1003.7 |
| 20260506002224 | 11 | 126 | 3.2 | 4.8 | 0.00 | 0.00 | 0.00 | 93 | 1005.6 |
| 20260506002004 | 12 | 101 | 3.2 | 4.8 | 0.00 | 0.00 | 0.00 | 89 | 1003.8 |
| 20260506001725 | 12 | 125 | 3.2 | 4.8 | 0.00 | 0.00 | 0.00 | 92 | 1005.7 |
| 20260506001504 | 12 | 102 | 1.6 | 4.8 | 0.00 | 0.00 | 0.00 | 89 | 1004.0 |
| 20260506001224 | 11 | 117 | 1.6 | 4.8 | 0.00 | 0.00 | 0.00 | 93 | 1005.4 |
| 20260506000724 | 11 | 97 | 1.6 | 3.2 | 0.00 | 0.00 | 0.00 | 93 | 1005.5 |
| 20260506000231 | 11 | 98 | 1.6 | 3.2 | 0.00 | 0.00 | 0.00 | 92 | 1005.6 |
| 20260506000004 | 12 | 0 | 0.0 | 0.0 | 0.00 | 0.00 | 0.00 | 88 | 1003.9 |
| 20260505235724 | 11 | 101 | 0.0 | 3.2 | 0.00 | 0.00 | 0.00 | 92 | 1005.4 |
| 20260505235504 | 12 | 135 | 0.0 | 3.2 | 0.00 | 0.00 | 0.00 | 87 | 1004.1 |
| 20260505235004 | 12 | 128 | 0.0 | 3.2 | 0.00 | 0.00 | 0.00 | 87 | 1004.1 |
| 20260505234504 | 12 | 131 | 0.0 | 1.6 | 0.00 | 0.00 | 0.00 | 87 | 1004.1 |
| 20260505234225 | 12 | 97 | 0.0 | 3.2 | 0.00 | 0.00 | 0.00 | 91 | 1005.7 |
| 20260505234004 | 12 | 90 | 1.6 | 3.2 | 0.00 | 0.00 | 0.00 | 88 | 1004.1 |
| 20260505233504 | 12 | 103 | 3.2 | 3.2 | 0.00 | 0.00 | 0.00 | 88 | 1004.0 |
| 20260505233225 | 12 | 110 | 1.6 | 3.2 | 0.00 | 0.00 | 0.00 | 91 | 1005.7 |
| 20260505233004 | 12 | 116 | 1.6 | 3.2 | 0.00 | 0.00 | 0.00 | 87 | 1004.0 |
| 20260505232724 | 12 | 119 | 1.6 | 4.8 | 0.00 | 0.00 | 0.00 | 90 | 1005.7 |
| 20260505232504 | 12 | 109 | 3.2 | 6.4 | 0.00 | 0.00 | 0.00 | 87 | 1004.0 |
| 20260505232225 | 12 | 89 | 3.2 | 6.4 | 0.00 | 0.00 | 0.00 | 90 | 1005.7 |
| 20260505232004 | 12 | 89 | 4.8 | 6.4 | 0.00 | 0.00 | 0.00 | 86 | 1004.1 |
| 20260505231725 | 12 | 66 | 3.2 | 6.4 | 0.00 | 0.00 | 0.00 | 89 | 1005.8 |
| 20260505231504 | 12 | 64 | 4.8 | 6.4 | 0.00 | 0.00 | 0.00 | 85 | 1004.3 |
| 20260505231225 | 12 | 145 | 3.2 | 6.4 | 0.00 | 0.00 | 0.00 | 89 | 1005.9 |
| 20260505231005 | 12 | 94 | 3.2 | 6.4 | 0.00 | 0.00 | 0.00 | 86 | 1004.4 |
| 20260505230504 | 12 | 107 | 1.6 | 3.2 | 0.00 | 0.00 | 0.00 | 85 | 1004.1 |
| 20260505230005 | 12 | 246 | 1.6 | 4.8 | 0.00 | 0.00 | 0.00 | 85 | 1004.2 |
| 20260505225725 | 12 | 282 | 1.6 | 4.8 | 0.00 | 0.00 | 0.00 | 87 | 1006.1 |
| 20260505225504 | 12 | 282 | 3.2 | 6.4 | 0.00 | 0.00 | 0.00 | 85 | 1004.3 |
| 20260505225224 | 12 | 154 | 3.2 | 6.4 | 0.00 | 0.00 | 0.00 | 87 | 1005.9 |
| 20260505225005 | 13 | 242 | 4.8 | 6.4 | 0.00 | 0.00 | 0.00 | 85 | 1004.3 |
| 20260505224724 | 12 | 150 | 3.2 | 6.4 | 0.00 | 0.00 | 0.00 | 86 | 1005.7 |
| 20260505224504 | 13 | 165 | 4.8 | 6.4 | 0.00 | 0.00 | 0.00 | 84 | 1004.3 |
| 20260505224225 | 12 | 191 | 3.2 | 6.4 | 0.00 | 0.00 | 0.00 | 86 | 1006.0 |
| 20260505224004 | 13 | 174 | 3.2 | 6.4 | 0.00 | 0.00 | 0.00 | 85 | 1004.3 |
| 20260505223725 | 13 | 192 | 1.6 | 3.2 | 0.00 | 0.00 | 0.00 | 86 | 1005.8 |
| 20260505223225 | 13 | 198 | 1.6 | 3.2 | 0.00 | 0.00 | 0.00 | 86 | 1005.9 |
| 20260505223004 | 13 | 183 | 1.6 | 4.8 | 0.00 | 0.00 | 0.00 | 84 | 1004.3 |
| 20260505222504 | 13 | 151 | 3.2 | 4.8 | 0.00 | 0.00 | 0.00 | 82 | 1004.2 |
| 20260505222225 | 13 | 151 | 1.6 | 4.8 | 0.00 | 0.00 | 0.00 | 85 | 1006.1 |
| 20260505222004 | 14 | 130 | 1.6 | 4.8 | 0.00 | 0.00 | 0.00 | 82 | 1004.3 |
| 20260505221724 | 13 | 159 | 1.6 | 3.2 | 0.00 | 0.00 | 0.00 | 85 | 1006.0 |
| 20260505221504 | 14 | 257 | 3.2 | 3.2 | 0.00 | 0.00 | 0.00 | 81 | 1004.3 |
| 20260505221224 | 13 | 45 | 1.6 | 3.2 | 0.00 | 0.00 | 0.00 | 85 | 1005.9 |
| 20260505221005 | 15 | 302 | 3.2 | 3.2 | 0.00 | 0.00 | 0.00 | 83 | 1004.3 |
| 20260505220725 | 14 | 57 | 1.6 | 3.2 | 0.00 | 0.00 | 0.00 | 84 | 1005.9 |
| 20260505220504 | 14 | 330 | 3.2 | 4.8 | 0.00 | 0.00 | 0.00 | 81 | 1004.1 |
| 20260505220231 | 14 | 344 | 3.2 | 6.4 | 0.00 | 0.00 | 0.00 | 84 | 1005.9 |
| 20260505220005 | 14 | 238 | 4.8 | 6.4 | 0.00 | 0.00 | 0.00 | 81 | 1004.3 |
| 20260505215725 | 14 | 325 | 4.8 | 6.4 | 0.00 | 0.00 | 0.00 | 83 | 1006.0 |
| 20260505215005 | 15 | 259 | 6.4 | 8.0 | 0.00 | 0.00 | 0.00 | 79 | 1004.2 |
| 20260505214724 | 15 | 327 | 4.8 | 8.0 | 0.00 | 0.00 | 0.00 | 83 | 1006.0 |
| 20260505213725 | 15 | 287 | 9.7 | 14.5 | 0.00 | 0.00 | 0.00 | 83 | 1006.0 |
| 20260505213224 | 15 | 22 | 6.4 | 12.9 | 0.00 | 0.00 | 0.00 | 83 | 1006.0 |
| 20260505213004 | 15 | 282 | 4.8 | 12.9 | 0.00 | 0.00 | 0.00 | 78 | 1004.4 |
| 20260505212725 | 15 | 63 | 1.6 | 4.8 | 0.00 | 0.00 | 0.00 | 82 | 1006.0 |
| 20260505212504 | 15 | 126 | 1.6 | 3.2 | 0.00 | 0.00 | 0.00 | 77 | 1004.2 |
| 20260505212224 | 15 | 295 | 0.0 | 3.2 | 0.00 | 0.00 | 0.00 | 81 | 1005.9 |
| 20260505211725 | 15 | 196 | 1.6 | 3.2 | 0.00 | 0.00 | 0.00 | 80 | 1006.1 |
| 20260505211504 | 15 | 126 | 1.6 | 3.2 | 0.00 | 0.00 | 0.00 | 77 | 1004.3 |
| 20260505211225 | 15 | 87 | 1.6 | 3.2 | 0.00 | 0.00 | 0.00 | 79 | 1006.1 |
| 20260505211004 | 15 | 41 | 3.2 | 3.2 | 0.00 | 0.00 | 0.00 | 76 | 1004.4 |
| 20260505210724 | 15 | 352 | 1.6 | 3.2 | 0.00 | 0.00 | 0.00 | 78 | 1006.0 |
| 20260505210504 | 15 | 327 | 1.6 | 3.2 | 0.00 | 0.00 | 0.00 | 75 | 1004.3 |
| 20260505210231 | 15 | 350 | 1.6 | 3.2 | 0.00 | 0.00 | 0.00 | 76 | 1005.8 |
| 20260505210005 | 16 | 4 | 1.6 | 3.2 | 0.00 | 0.00 | 0.00 | 74 | 1004.4 |
| 20260505205724 | 15 | 31 | 1.6 | 3.2 | 0.00 | 0.00 | 0.00 | 76 | 1006.0 |
| 20260505205504 | 16 | 332 | 1.6 | 3.2 | 0.00 | 0.00 | 0.00 | 72 | 1004.3 |
| 20260505205225 | 16 | 345 | 1.6 | 3.2 | 0.00 | 0.00 | 0.00 | 74 | 1006.0 |
| 20260505205004 | 16 | 322 | 3.2 | 4.8 | 0.00 | 0.00 | 0.00 | 71 | 1004.4 |
| 20260505204725 | 16 | 29 | 1.6 | 3.2 | 0.00 | 0.00 | 0.00 | 72 | 1006.1 |
| 20260505204504 | 17 | 340 | 1.6 | 4.8 | 0.00 | 0.00 | 0.00 | 70 | 1004.3 |
| 20260505204224 | 16 | 46 | 0.0 | 3.2 | 0.00 | 0.00 | 0.00 | 72 | 1005.9 |
| 20260505204004 | 17 | 196 | 0.0 | 3.2 | 0.00 | 0.00 | 0.00 | 69 | 1004.3 |
| 20260505203724 | 17 | 0 | 0.0 | 0.0 | 0.00 | 0.00 | 0.00 | 71 | 1006.1 |
| 20260505203504 | 17 | 40 | 0.0 | 1.6 | 0.00 | 0.00 | 0.00 | 69 | 1004.4 |
| 20260505203225 | 17 | 46 | 0.0 | 1.6 | 0.00 | 0.00 | 0.00 | 70 | 1006.1 |
| 20260505202504 | 17 | 339 | 3.2 | 6.4 | 0.00 | 0.00 | 0.00 | 68 | 1004.4 |
| 20260505201725 | 17 | 51 | 4.8 | 9.7 | 0.00 | 0.00 | 0.00 | 69 | 1005.7 |
| 20260505201504 | 18 | 354 | 6.4 | 9.7 | 0.00 | 0.00 | 0.00 | 67 | 1004.3 |
| 20260505201225 | 18 | 38 | 6.4 | 9.7 | 0.00 | 0.00 | 0.00 | 68 | 1005.8 |
| 20260505201004 | 18 | 1 | 4.8 | 8.0 | 0.00 | 0.00 | 0.00 | 66 | 1004.2 |
| 20260505200504 | 17 | 347 | 4.8 | 8.0 | 0.00 | 0.00 | 0.00 | 64 | 1004.2 |
| 20260505200231 | 17 | 28 | 6.4 | 8.0 | 0.00 | 0.00 | 0.00 | 66 | 1005.9 |
| 20260505200004 | 17 | 349 | 6.4 | 8.0 | 0.00 | 0.00 | 0.00 | 64 | 1004.2 |
| 20260505195724 | 17 | 36 | 4.8 | 8.0 | 0.00 | 0.00 | 0.00 | 65 | 1005.8 |
| 20260505195504 | 17 | 349 | 6.4 | 8.0 | 0.00 | 0.00 | 0.00 | 63 | 1004.2 |
| 20260505195225 | 17 | 19 | 3.2 | 6.4 | 0.00 | 0.00 | 0.00 | 64 | 1005.8 |
| 20260505195005 | 17 | 313 | 4.8 | 6.4 | 0.00 | 0.00 | 0.00 | 62 | 1004.3 |
| 20260505194725 | 17 | 195 | 3.2 | 6.4 | 0.00 | 0.00 | 0.00 | 62 | 1005.9 |
| 20260505194504 | 17 | 215 | 3.2 | 6.4 | 0.00 | 0.00 | 0.00 | 61 | 1004.3 |
| 20260505194224 | 17 | 187 | 3.2 | 6.4 | 0.00 | 0.00 | 0.00 | 62 | 1005.8 |
| 20260505194004 | 17 | 228 | 4.8 | 6.4 | 0.00 | 0.00 | 0.00 | 59 | 1004.3 |
| 20260505193724 | 17 | 155 | 3.2 | 6.4 | 0.00 | 0.00 | 0.00 | 60 | 1005.7 |
| 20260505193225 | 17 | 346 | 4.8 | 12.9 | 0.00 | 0.00 | 0.00 | 57 | 1005.8 |
| 20260505193004 | 17 | 350 | 3.2 | 14.5 | 0.00 | 0.00 | 0.00 | 56 | 1004.2 |
| 20260505192504 | 17 | 321 | 6.4 | 14.5 | 0.00 | 0.00 | 0.00 | 53 | 1004.1 |
| 20260505192225 | 16 | 286 | 4.8 | 11.3 | 0.00 | 0.00 | 0.00 | 55 | 1005.7 |
| 20260505192004 | 17 | 284 | 4.8 | 9.7 | 0.00 | 0.00 | 0.00 | 52 | 1004.1 |
| 20260505191225 | 16 | 296 | 1.6 | 4.8 | 0.00 | 0.00 | 0.00 | 52 | 1005.7 |
| 20260505191004 | 17 | 270 | 0.0 | 4.8 | 0.00 | 0.00 | 0.00 | 49 | 1004.0 |
| 20260505190505 | 18 | 0 | 0.0 | 0.0 | 0.00 | 0.00 | 0.00 | 47 | 1003.9 |
| 20260505190231 | 17 | 270 | 0.0 | 1.6 | 0.00 | 0.00 | 0.00 | 47 | 1005.4 |
| 20260505190004 | 18 | 290 | 1.6 | 3.2 | 0.00 | 0.00 | 0.00 | 46 | 1003.7 |
| 20260505185724 | 18 | 279 | 0.0 | 3.2 | 0.00 | 0.00 | 0.00 | 46 | 1005.5 |
| 20260505185505 | 19 | 269 | 3.2 | 3.2 | 0.00 | 0.00 | 0.00 | 44 | 1003.8 |
| 20260505185225 | 19 | 270 | 1.6 | 3.2 | 0.00 | 0.00 | 0.00 | 44 | 1005.3 |
| 20260505184725 | 20 | 200 | 3.2 | 6.4 | 0.00 | 0.00 | 0.00 | 41 | 1005.3 |
| 20260505184004 | 20 | 182 | 4.8 | 6.4 | 0.00 | 0.00 | 0.00 | 41 | 1003.6 |
| 20260505183505 | 20 | 168 | 4.8 | 6.4 | 0.00 | 0.00 | 0.00 | 41 | 1003.6 |
| 20260505183225 | 20 | 158 | 4.8 | 6.4 | 0.00 | 0.00 | 0.00 | 40 | 1005.1 |
| 20260505183004 | 20 | 162 | 4.8 | 6.4 | 0.00 | 0.00 | 0.00 | 42 | 1003.6 |
| 20260505182725 | 20 | 166 | 3.2 | 6.4 | 0.00 | 0.00 | 0.00 | 41 | 1005.3 |
| 20260505182504 | 20 | 171 | 3.2 | 6.4 | 0.00 | 0.00 | 0.00 | 41 | 1003.7 |
| 20260505182005 | 21 | 183 | 3.2 | 3.2 | 0.00 | 0.00 | 0.00 | 39 | 1003.6 |
| 20260505181725 | 21 | 174 | 1.6 | 3.2 | 0.00 | 0.00 | 0.00 | 39 | 1005.3 |
| 20260505181224 | 21 | 166 | 0.0 | 1.6 | 0.00 | 0.00 | 0.00 | 36 | 1005.1 |
| 20260505181005 | 21 | 181 | 0.0 | 3.2 | 0.00 | 0.00 | 0.00 | 36 | 1003.7 |
| 20260505180725 | 21 | 0 | 0.0 | 0.0 | 0.00 | 0.00 | 0.00 | 35 | 1005.3 |
| 20260505180504 | 22 | 181 | 0.0 | 1.6 | 0.00 | 0.00 | 0.00 | 33 | 1003.6 |
| 20260505180004 | 22 | 222 | 0.0 | 1.6 | 0.00 | 0.00 | 0.00 | 33 | 1003.6 |
| 20260505175725 | 22 | 181 | 0.0 | 1.6 | 0.00 | 0.00 | 0.00 | 32 | 1005.3 |
| 20260505175505 | 22 | 257 | 1.6 | 3.2 | 0.00 | 0.00 | 0.00 | 33 | 1003.4 |
| 20260505175224 | 22 | 270 | 0.0 | 3.2 | 0.00 | 0.00 | 0.00 | 32 | 1005.2 |
| 20260505175004 | 23 | 274 | 1.6 | 3.2 | 0.00 | 0.00 | 0.00 | 34 | 1003.5 |
| 20260505174724 | 22 | 256 | 1.6 | 3.2 | 0.00 | 0.00 | 0.00 | 32 | 1005.1 |
| 20260505174504 | 23 | 268 | 3.2 | 3.2 | 0.00 | 0.00 | 0.00 | 33 | 1003.4 |
| 20260505174225 | 22 | 262 | 1.6 | 3.2 | 0.00 | 0.00 | 0.00 | 32 | 1005.0 |
| 20260505174004 | 23 | 265 | 3.2 | 3.2 | 0.00 | 0.00 | 0.00 | 33 | 1003.4 |
| 20260505173725 | 23 | 266 | 3.2 | 3.2 | 0.00 | 0.00 | 0.00 | 32 | 1005.2 |
| 20260505173504 | 23 | 264 | 3.2 | 6.4 | 0.00 | 0.00 | 0.00 | 32 | 1003.4 |
| 20260505173224 | 23 | 280 | 4.8 | 6.4 | 0.00 | 0.00 | 0.00 | 30 | 1004.9 |
| 20260505173004 | 23 | 259 | 4.8 | 6.4 | 0.00 | 0.00 | 0.00 | 30 | 1003.4 |
| 20260505172725 | 23 | 273 | 4.8 | 8.0 | 0.00 | 0.00 | 0.00 | 30 | 1005.1 |
| 20260505172224 | 23 | 267 | 4.8 | 8.0 | 0.00 | 0.00 | 0.00 | 29 | 1005.2 |
| 20260505172004 | 25 | 266 | 4.8 | 6.4 | 0.00 | 0.00 | 0.00 | 30 | 1003.5 |
| 20260505171505 | 25 | 253 | 4.8 | 8.0 | 0.00 | 0.00 | 0.00 | 28 | 1003.4 |
| 20260505171225 | 24 | 265 | 6.4 | 9.7 | 0.00 | 0.00 | 0.00 | 28 | 1005.2 |
| 20260505171004 | 25 | 249 | 8.0 | 12.9 | 0.00 | 0.00 | 0.00 | 28 | 1003.5 |
| 20260505170724 | 24 | 268 | 9.7 | 14.5 | 0.00 | 0.00 | 0.00 | 27 | 1005.1 |
| 20260505170504 | 25 | 264 | 9.7 | 12.9 | 0.00 | 0.00 | 0.00 | 27 | 1003.6 |
| 20260505170004 | 25 | 270 | 9.7 | 12.9 | 0.00 | 0.00 | 0.00 | 27 | 1003.4 |
| 20260505165725 | 25 | 274 | 11.3 | 14.5 | 0.00 | 0.00 | 0.00 | 25 | 1005.1 |
| 20260505165504 | 25 | 259 | 11.3 | 12.9 | 0.00 | 0.00 | 0.00 | 26 | 1003.5 |
| 20260505165224 | 25 | 291 | 12.9 | 17.7 | 0.00 | 0.00 | 0.00 | 25 | 1005.2 |
| 20260505165004 | 26 | 282 | 12.9 | 17.7 | 0.00 | 0.00 | 0.00 | 26 | 1003.5 |
| 20260505164724 | 25 | 292 | 12.9 | 17.7 | 0.00 | 0.00 | 0.00 | 24 | 1005.1 |
| 20260505164504 | 26 | 293 | 12.9 | 17.7 | 0.00 | 0.00 | 0.00 | 24 | 1003.6 |
| 20260505164225 | 26 | 297 | 11.3 | 16.1 | 0.00 | 0.00 | 0.00 | 24 | 1005.4 |
| 20260505164004 | 26 | 276 | 12.9 | 16.1 | 0.00 | 0.00 | 0.00 | 24 | 1003.6 |
| 20260505163725 | 26 | 266 | 12.9 | 16.1 | 0.00 | 0.00 | 0.00 | 23 | 1005.0 |
| 20260505163504 | 26 | 270 | 12.9 | 16.1 | 0.00 | 0.00 | 0.00 | 23 | 1003.6 |
| 20260505163004 | 26 | 248 | 12.9 | 16.1 | 0.00 | 0.00 | 0.00 | 22 | 1003.5 |
| 20260505162504 | 26 | 235 | 12.9 | 16.1 | 0.00 | 0.00 | 0.00 | 22 | 1003.7 |
| 20260505162224 | 26 | 268 | 12.9 | 17.7 | 0.00 | 0.00 | 0.00 | 17 | 1005.1 |
| 20260505162004 | 26 | 243 | 14.5 | 17.7 | 0.00 | 0.00 | 0.00 | 21 | 1003.6 |
| 20260505161725 | 26 | 296 | 14.5 | 20.9 | 0.00 | 0.00 | 0.00 | 17 | 1005.3 |
| 20260505161504 | 26 | 224 | 16.1 | 19.3 | 0.00 | 0.00 | 0.00 | 21 | 1003.7 |
| 20260505160504 | 26 | 198 | 16.1 | 19.3 | 0.00 | 0.00 | 0.00 | 20 | 1003.6 |
| 20260505153224 | 26 | 218 | 14.5 | 20.9 | 0.00 | 0.00 | 0.00 | 15 | 1005.6 |
| 20260505153004 | 27 | 218 | 16.1 | 22.5 | 0.00 | 0.00 | 0.00 | 18 | 1003.8 |
| 20260505152725 | 26 | 214 | 17.7 | 20.9 | 0.00 | 0.00 | 0.00 | 15 | 1005.3 |
| 20260505152225 | 27 | 215 | 16.1 | 20.9 | 0.00 | 0.00 | 0.00 | 14 | 1005.6 |
| 20260505152004 | 27 | 182 | 16.1 | 24.1 | 0.00 | 0.00 | 0.00 | 18 | 1003.8 |
| 20260505151725 | 27 | 225 | 16.1 | 19.3 | 0.00 | 0.00 | 0.00 | 15 | 1005.6 |
| 20260505151504 | 27 | 189 | 16.1 | 22.5 | 0.00 | 0.00 | 0.00 | 20 | 1003.9 |
| 20260505151224 | 27 | 225 | 16.1 | 24.1 | 0.00 | 0.00 | 0.00 | 15 | 1005.3 |
| 20260505150725 | 27 | 229 | 14.5 | 24.1 | 0.00 | 0.00 | 0.00 | 15 | 1005.9 |
| 20260505150504 | 27 | 231 | 16.1 | 24.1 | 0.00 | 0.00 | 0.00 | 20 | 1003.9 |
| 20260505150231 | 27 | 238 | 16.1 | 19.3 | 0.00 | 0.00 | 0.00 | 16 | 1005.6 |
| 20260505140230 | 27 | 215 | 16.1 | 24.1 | 0.00 | 0.00 | 0.00 | 18 | 1006.0 |
| 20260505130233 | 27 | 199 | 14.5 | 22.5 | 0.00 | 0.00 | 0.00 | 21 | 1006.8 |
| 20260505125004 | 27 | 193 | 17.7 | 29.0 | 0.00 | 0.00 | 0.00 | 21 | 1005.0 |
| 20260505124725 | 27 | 171 | 19.3 | 29.0 | 0.00 | 0.00 | 0.00 | 19 | 1006.6 |
| 20260505124504 | 27 | 174 | 17.7 | 29.0 | 0.00 | 0.00 | 0.00 | 21 | 1005.1 |
| 20260505124224 | 27 | 181 | 17.7 | 33.8 | 0.00 | 0.00 | 0.00 | 18 | 1006.6 |
| 20260505124004 | 27 | 177 | 20.9 | 33.8 | 0.00 | 0.00 | 0.00 | 21 | 1005.1 |
| 20260505123724 | 27 | 215 | 20.9 | 33.8 | 0.00 | 0.00 | 0.00 | 18 | 1006.9 |
| 20260505123504 | 27 | 198 | 22.5 | 33.8 | 0.00 | 0.00 | 0.00 | 21 | 1005.3 |
| 20260505123225 | 27 | 216 | 19.3 | 27.4 | 0.00 | 0.00 | 0.00 | 18 | 1006.9 |
| 20260505123004 | 27 | 207 | 19.3 | 25.7 | 0.00 | 0.00 | 0.00 | 21 | 1005.3 |
| 20260505122725 | 27 | 184 | 19.3 | 27.4 | 0.00 | 0.00 | 0.00 | 18 | 1006.8 |
| 20260505122504 | 27 | 184 | 17.7 | 25.7 | 0.00 | 0.00 | 0.00 | 21 | 1005.3 |
| 20260505122225 | 27 | 173 | 19.3 | 27.4 | 0.00 | 0.00 | 0.00 | 17 | 1006.8 |
| 20260505122004 | 27 | 195 | 17.7 | 24.1 | 0.00 | 0.00 | 0.00 | 21 | 1005.4 |
| 20260505121724 | 27 | 202 | 19.3 | 30.6 | 0.00 | 0.00 | 0.00 | 18 | 1006.9 |
| 20260505121004 | 27 | 192 | 16.1 | 25.7 | 0.00 | 0.00 | 0.00 | 21 | 1005.5 |
| 20260505120725 | 27 | 184 | 12.9 | 14.5 | 0.00 | 0.00 | 0.00 | 21 | 1006.9 |
| 20260505120504 | 26 | 185 | 14.5 | 19.3 | 0.00 | 0.00 | 0.00 | 23 | 1005.5 |
| 20260505120231 | 27 | 184 | 12.9 | 17.7 | 0.00 | 0.00 | 0.00 | 18 | 1006.9 |
| 20260505115225 | 26 | 205 | 12.9 | 17.7 | 0.00 | 0.00 | 0.00 | 22 | 1006.9 |
| 20260505115004 | 26 | 194 | 14.5 | 19.3 | 0.00 | 0.00 | 0.00 | 22 | 1005.6 |
| 20260505114504 | 26 | 201 | 12.9 | 19.3 | 0.00 | 0.00 | 0.00 | 23 | 1005.5 |
| 20260505114224 | 26 | 186 | 12.9 | 22.5 | 0.00 | 0.00 | 0.00 | 22 | 1007.1 |
| 20260505114004 | 26 | 195 | 14.5 | 20.9 | 0.00 | 0.00 | 0.00 | 23 | 1005.7 |
| 20260505113724 | 26 | 196 | 16.1 | 22.5 | 0.00 | 0.00 | 0.00 | 19 | 1007.1 |
| 20260505113504 | 26 | 186 | 14.5 | 20.9 | 0.00 | 0.00 | 0.00 | 23 | 1005.8 |
| 20260505112724 | 26 | 189 | 16.1 | 22.5 | 0.00 | 0.00 | 0.00 | 22 | 1007.2 |
| 20260505112504 | 26 | 194 | 17.7 | 24.1 | 0.00 | 0.00 | 0.00 | 23 | 1005.7 |
| 20260505112224 | 26 | 182 | 16.1 | 22.5 | 0.00 | 0.00 | 0.00 | 20 | 1007.4 |
| 20260505112004 | 26 | 196 | 16.1 | 24.1 | 0.00 | 0.00 | 0.00 | 24 | 1005.9 |
| 20260505111725 | 26 | 188 | 14.5 | 22.5 | 0.00 | 0.00 | 0.00 | 23 | 1007.5 |
| 20260505111504 | 26 | 177 | 12.9 | 16.1 | 0.00 | 0.00 | 0.00 | 28 | 1006.0 |
| 20260505111226 | 26 | 189 | 12.9 | 17.7 | 0.00 | 0.00 | 0.00 | 24 | 1007.1 |
| 20260505111003 | 26 | 197 | 12.9 | 17.7 | 0.00 | 0.00 | 0.00 | 28 | 1005.9 |
| 20260505110725 | 26 | 203 | 12.9 | 17.7 | 0.00 | 0.00 | 0.00 | 24 | 1007.6 |
| 20260505110504 | 25 | 205 | 14.5 | 17.7 | 0.00 | 0.00 | 0.00 | 27 | 1005.9 |
| 20260505110230 | 26 | 222 | 11.3 | 17.7 | 0.00 | 0.00 | 0.00 | 24 | 1007.5 |
| 20260505101724 | 25 | 223 | 12.9 | 17.7 | 0.00 | 0.00 | 0.00 | 29 | 1008.0 |
| 20260505101504 | 25 | 221 | 11.3 | 19.3 | 0.00 | 0.00 | 0.00 | 33 | 1006.6 |
| 20260505101224 | 25 | 222 | 14.5 | 14.5 | 0.00 | 0.00 | 0.00 | 29 | 1008.1 |
| 20260505101004 | 25 | 220 | 9.7 | 9.7 | 0.00 | 0.00 | 0.00 | 32 | 1006.7 |
| 20260505100725 | 25 | 225 | 14.5 | 14.5 | 0.00 | 0.00 | 0.00 | 29 | 1008.1 |
| 20260505100504 | 25 | 237 | 9.7 | 14.5 | 0.00 | 0.00 | 0.00 | 33 | 1006.7 |
| 20260505100005 | 25 | 256 | 11.3 | 16.1 | 0.00 | 0.00 | 0.00 | 33 | 1006.8 |
| 20260505095504 | 25 | 263 | 11.3 | 16.1 | 0.00 | 0.00 | 0.00 | 33 | 1007.0 |
| 20260505095225 | 25 | 266 | 11.3 | 16.1 | 0.00 | 0.00 | 0.00 | 28 | 1008.4 |
| 20260505094725 | 25 | 243 | 11.3 | 17.7 | 0.00 | 0.00 | 0.00 | 29 | 1008.4 |